[[{"header":{"parameterUnit":"m.s-1","parameterCategory":1,"la1":30.2991,"la2":30.254,"lo1":-89.0895,"lo2":-89.0444,"dy":0.0017,"dx":0.0017,"nx":28,"ny":28,"refTime":"2024-08-27T03:00:00:Z","depth":0,"parameterNumber":2,"parameterNumberName":"U-component_of_WINDS"},"data":[0,0,0,0,0,0,0,0,0,0,0,0,0,0,0,0,0,0,0,0,0,0,0,0,0,0,0,0,0,0,0,0,0,0,0,0,0,0,0,0,0,0,0,0,0,0,0,0,0,0,0,0,0,0,0,0,0,0,0.1749,0.1748,0,0.1697,0.1697,0.1696,0.1687,0.1687,0.1688,0.1688,0.1633,0.1631,0.1629,0,0,0,0,0,0,0,0,0,0,0,0,0,0.1834,0.1833,0.1749,0.1748,0.1747,0.1698,0.1697,0.1696,0.1687,0.1687,0.1688,0.1688,0.1633,0.1631,0.1629,0,0,0,0,0,0,0,0,0,0,0,0,0,0.1791,0.1832,0.1749,0.1737,0.1735,0.1698,0.1697,0.1696,0.1687,0.1687,0.1688,0.1689,0.1634,0.1631,0.1629,0.1598,0,0,0.162,0.1619,0,0,0,0,0,0,0,0,0.1794,0.1788,0.1739,0.1738,0.1736,0.1699,0.1707,0.1663,0.1687,0.1705,0.1688,0.1689,0.1654,0.165,0.1639,0.1596,0.1593,0.162,0.1618,0.1617,0.1616,0,0,0,0,0,0,0,0.1797,0.179,0.1728,0.1738,0.1736,0.1733,0.1727,0.1698,0.1676,0.1703,0.1703,0.1697,0.1653,0.1641,0.1637,0.1593,0.162,0.1617,0.1616,0.1614,0.152,0.1519,0,0,0,0,0,0,0.1802,0.1793,0.173,0.1727,0.1767,0.1731,0.1725,0.171,0.1677,0.1672,0.1696,0.1697,0.1646,0.1641,0.1635,0.1596,0.1617,0.1614,0.1613,0.1521,0.152,0.1519,0,0,0,0,0,0,0.1804,0.1797,0.1732,0.176,0.1751,0.1728,0.1712,0.1709,0.1697,0.1672,0.1667,0.1688,0.1646,0.1639,0.1607,0.1594,0.1613,0.161,0.1522,0.1521,0.152,0.1519,0,0,0,0,0,0,0.1807,0.1798,0.1787,0.1759,0.175,0.1706,0.1712,0.1707,0.1693,0.1692,0.1663,0.1659,0.1646,0.1612,0.1605,0.1591,0.1608,0.1523,0.1521,0.152,0.152,0.1518,0.1516,0,0,0,0,0,0.181,0.1789,0.1787,0.1779,0.1736,0.1705,0.17,0.1687,0.1692,0.168,0.1663,0.166,0.1597,0.1608,0.16,0.1585,0.1524,0.1522,0.152,0.1521,0.1518,0.1516,0,0,0,0,0,0,0.1814,0.1785,0.1782,0.1752,0.1731,0.1704,0.1689,0.1684,0.1661,0.1662,0.1646,0.1639,0.1608,0.1594,0.1607,0.1553,0.1561,0.1557,0.1564,0.1561,0.1559,0.1563,0.1606,0,0,0,0,0,0.1812,0.1791,0.1766,0.1741,0.1731,0.1712,0.1698,0.169,0.1667,0.1658,0.1639,0.1617,0.1592,0.1576,0.1552,0.1518,0.151,0.1504,0.1502,0.15,0.1497,0.1476,0.1472,0.1513,0.1513,0.1513,0,0,0.1807,0.1788,0.1775,0.1741,0.1725,0.1701,0.1705,0.168,0.1662,0.1654,0.1623,0.1608,0.1582,0.1549,0.1533,0.1536,0.1484,0.1498,0.1497,0.1494,0.1473,0.147,0.1466,0.1512,0.1512,0.1512,0,0,0.1784,0.1769,0.1746,0.1729,0.1704,0.1691,0.1685,0.1658,0.1648,0.1617,0.161,0.1588,0.1546,0.1527,0.1512,0.1481,0.1476,0.1473,0.1462,0.1442,0.1439,0.1436,0.1423,0.1419,0.1471,0.1471,0.1471,0,0.178,0.1747,0.1734,0.171,0.1694,0.1687,0.1662,0.1646,0.1614,0.1602,0.1606,0.1552,0.1534,0.1495,0.1488,0.1477,0.1468,0.1476,0.1441,0.1437,0.1434,0.1422,0.1417,0.147,0.147,0.147,0.147,0,0.1742,0.1718,0.1703,0.1672,0.1655,0.1631,0.1613,0.1597,0.159,0.1576,0.1543,0.1521,0.1491,0.1481,0.1474,0.1441,0.1443,0.1444,0.1451,0.143,0.1418,0.1414,0.147,0.147,0.147,0.147,0,0,0.1721,0.1684,0.1678,0.1663,0.1634,0.1615,0.159,0.1561,0.1547,0.1525,0.1501,0.1466,0.1466,0.1449,0.1439,0.1422,0.1396,0.1424,0.1423,0.1418,0.1356,0.1354,0.1349,0.1393,0.1392,0.1392,0.1357,0,0.1694,0.165,0.1637,0.1599,0.1576,0.1568,0.1545,0.1524,0.151,0.1488,0.1472,0.1446,0.1449,0.1439,0.1421,0.1403,0.1383,0.1406,0.137,0.1369,0.1375,0.1343,0.1341,0.131,0.1353,0.1352,0.1351,0,0.1657,0.1634,0.1594,0.1566,0.1556,0.1536,0.1508,0.1488,0.1463,0.1454,0.1434,0.1426,0.1397,0.1406,0.1365,0.1381,0.1365,0.1354,0.1352,0.1347,0.1358,0.1335,0.13,0.1294,0.1344,0.1345,0.1345,0,0.1644,0.1603,0.1573,0.1561,0.1529,0.1515,0.15,0.1476,0.1459,0.1435,0.1423,0.1395,0.138,0.1358,0.1341,0.135,0.1301,0.1309,0.1291,0.1291,0.128,0.1281,0.124,0.1273,0.1273,0.1273,0.1273,0,0.1614,0.1589,0.1566,0.1548,0.1519,0.1504,0.1476,0.1461,0.1439,0.1416,0.1408,0.1386,0.1367,0.1342,0.1329,0.1296,0.1289,0.128,0.1276,0.128,0.128,0.1268,0.1269,0.1272,0.1272,0.1272,0.1272,0,0.1594,0.1578,0.1544,0.1517,0.1509,0.1489,0.1464,0.1445,0.1431,0.1401,0.1394,0.1371,0.1341,0.1323,0.1285,0.1277,0.1239,0.1238,0.1248,0.1246,0.1228,0.1229,0.1177,0.1168,0.1208,0.1208,0.1208,0,0.1575,0.1556,0.1526,0.151,0.1496,0.1471,0.1454,0.1438,0.1421,0.139,0.1374,0.1344,0.1319,0.1271,0.125,0.1221,0.1217,0.1201,0.1213,0.1216,0.1215,0.1215,0.1212,0.1199,0.1198,0.1198,0.1198,0,0.1543,0.1536,0.1513,0.1485,0.1465,0.1443,0.1421,0.1408,0.1388,0.1368,0.1338,0.1319,0.128,0.125,0.1218,0.1202,0.1195,0.1194,0.1188,0.119,0.1196,0.1191,0.1241,0.1195,0.1195,0.1196,0.1196,0.1196,0.1522,0.1504,0.1479,0.1453,0.1434,0.1413,0.1393,0.1377,0.1352,0.1319,0.1312,0.1279,0.1253,0.121,0.1193,0.1167,0.1169,0.1161,0.1158,0.1156,0.1154,0.1202,0.1161,0.1161,0.1161,0.1161,0.1161,0,0.1488,0.1472,0.1448,0.1417,0.1395,0.1392,0.1367,0.1349,0.1321,0.1298,0.1273,0.1237,0.1207,0.1184,0.1153,0.1136,0.1132,0.1128,0.1128,0.1124,0.1155,0.1163,0.1131,0.1131,0.1131,0.1131,0.1131,0.1131,0.1468,0.1436,0.1426,0.1384,0.1368,0.1337,0.1322,0.1302,0.1283,0.1244,0.1219,0.1205,0.118,0.1147,0.1119,0.1113,0.1101,0.1097,0.109,0.1119,0.1122,0.1125,0.1132,0.1095,0.1095,0.106,0.106,0.106]},{"header":{"parameterUnit":"m.s-1","parameterCategory":1,"la1":30.2991,"la2":30.254,"lo1":-89.0895,"lo2":-89.0444,"dy":0.0017,"dx":0.0017,"nx":28,"ny":28,"refTime":"2024-08-27T03:00:00:Z","depth":0,"parameterNumber":3,"parameterNumberName":"V-component_of_WINDS"},"data":[0,0,0,0,0,0,0,0,0,0,0,0,0,0,0,0,0,0,0,0,0,0,0,0,0,0,0,0,0,0,0,0,0,0,0,0,0,0,0,0,0,0,0,0,0,0,0,0,0,0,0,0,0,0,0,0,0,0,2.2589,2.2589,0,2.2567,2.2566,2.2566,2.2532,2.2532,2.2531,2.253,2.2508,2.2508,2.2508,0,0,0,0,0,0,0,0,0,0,0,0,0,2.2603,2.2602,2.2589,2.2589,2.2588,2.2567,2.2566,2.2566,2.2532,2.2532,2.2531,2.253,2.2508,2.2508,2.2508,0,0,0,0,0,0,0,0,0,0,0,0,0,2.259,2.2602,2.2589,2.2569,2.2567,2.2567,2.2566,2.2566,2.2532,2.2532,2.2531,2.253,2.2508,2.2508,2.2508,2.2525,0,0,2.2507,2.2507,0,0,0,0,0,0,0,0,2.2591,2.259,2.2572,2.257,2.2568,2.2551,2.2563,2.2552,2.2533,2.2546,2.253,2.2529,2.2523,2.2522,2.2519,2.2524,2.2523,2.2507,2.2507,2.2507,2.2507,0,0,0,0,0,0,0,2.2592,2.259,2.258,2.2572,2.2569,2.2561,2.2558,2.2561,2.254,2.2544,2.2542,2.254,2.2522,2.2519,2.2518,2.2523,2.2507,2.2507,2.2507,2.2507,2.2539,2.254,0,0,0,0,0,0,2.2596,2.2591,2.2581,2.2579,2.2577,2.2562,2.2559,2.2558,2.2539,2.2536,2.254,2.2538,2.252,2.2519,2.2518,2.2535,2.2507,2.2507,2.2507,2.2539,2.254,2.2541,0,0,0,0,0,0,2.2596,2.2595,2.2582,2.2585,2.2582,2.2562,2.2562,2.2558,2.2555,2.2536,2.2533,2.2542,2.2519,2.2518,2.2523,2.2534,2.2507,2.2507,2.2537,2.2539,2.254,2.2573,0,0,0,0,0,0,2.2597,2.2595,2.2602,2.2585,2.2582,2.2588,2.2562,2.2558,2.2555,2.2552,2.2537,2.2534,2.2518,2.2523,2.2523,2.2534,2.2507,2.2536,2.2538,2.254,2.257,2.2575,2.2579,0,0,0,0,0,2.2597,2.2612,2.2602,2.2601,2.259,2.2588,2.2587,2.2569,2.2556,2.2562,2.255,2.2534,2.2534,2.2524,2.2524,2.2534,2.2535,2.2538,2.254,2.2568,2.2574,2.2579,0,0,0,0,0,0,2.263,2.2609,2.2598,2.2608,2.26,2.2583,2.259,2.2576,2.2571,2.2568,2.2547,2.2544,2.2551,2.2544,2.2534,2.255,2.2532,2.2534,2.2554,2.2559,2.2563,2.2564,2.2507,0,0,0,0,0,2.2639,2.264,2.2621,2.2632,2.2629,2.261,2.2609,2.2596,2.2587,2.2583,2.2571,2.2563,2.2561,2.256,2.2557,2.257,2.2565,2.2577,2.2581,2.2585,2.2586,2.2591,2.2595,2.2547,2.2547,2.2547,0,0,2.2657,2.2645,2.2647,2.2638,2.2631,2.2631,2.2607,2.261,2.261,2.2584,2.2587,2.2579,2.2568,2.2577,2.258,2.2571,2.2598,2.2587,2.259,2.2589,2.2593,2.2598,2.2602,2.2549,2.2548,2.2548,0,0,2.2688,2.2681,2.2688,2.2681,2.2669,2.2657,2.2659,2.2643,2.2636,2.264,2.262,2.2621,2.2618,2.261,2.2607,2.2636,2.262,2.2636,2.2657,2.2662,2.2666,2.2669,2.2678,2.2681,2.2638,2.2638,2.2638,0,2.2711,2.2712,2.2693,2.2696,2.2693,2.267,2.2676,2.267,2.2659,2.2657,2.2647,2.2642,2.2633,2.2639,2.2647,2.2645,2.2645,2.2637,2.2667,2.267,2.2672,2.2681,2.2684,2.264,2.264,2.2639,2.2639,0,2.274,2.2741,2.2748,2.2737,2.2734,2.2739,2.2722,2.2721,2.2709,2.2698,2.2701,2.269,2.2684,2.2685,2.2673,2.2689,2.2684,2.2671,2.2652,2.2679,2.2686,2.2689,2.2642,2.2642,2.2641,2.2641,0,0,2.279,2.277,2.2772,2.2767,2.2753,2.2753,2.2757,2.2751,2.2751,2.2744,2.2746,2.2744,2.2732,2.2727,2.2714,2.2719,2.2741,2.2705,2.2704,2.271,2.2756,2.2765,2.2769,2.2731,2.2732,2.2733,2.2757,0,2.2818,2.2823,2.2807,2.2816,2.2816,2.2794,2.2798,2.2789,2.2779,2.2777,2.2766,2.2765,2.2749,2.2746,2.275,2.2738,2.275,2.2736,2.2732,2.2732,2.2733,2.2773,2.2783,2.2806,2.276,2.276,2.2761,0,2.2851,2.2845,2.2854,2.2839,2.2839,2.2842,2.2835,2.2834,2.2824,2.2816,2.2811,2.2796,2.2799,2.2782,2.2785,2.2776,2.2773,2.2767,2.2768,2.2765,2.2747,2.277,2.2813,2.2816,2.2765,2.2765,2.2765,0,2.2884,2.288,2.2884,2.288,2.2863,2.2866,2.2859,2.2849,2.2846,2.284,2.2838,2.2832,2.2829,2.2825,2.2809,2.2799,2.2813,2.2795,2.2805,2.2806,2.2808,2.2807,2.2849,2.2809,2.2809,2.2809,2.2809,0,2.2916,2.2922,2.2899,2.2901,2.2907,2.2889,2.2896,2.2887,2.2877,2.2877,2.2859,2.286,2.2839,2.2837,2.2825,2.2828,2.2827,2.282,2.2816,2.2821,2.2821,2.2818,2.2815,2.281,2.281,2.281,2.281,0,2.2954,2.2939,2.2942,2.2926,2.2922,2.2927,2.2913,2.2915,2.2904,2.2904,2.2903,2.2886,2.2883,2.2867,2.286,2.2852,2.2859,2.2853,2.2862,2.2859,2.2869,2.2868,2.2909,2.2912,2.2872,2.2872,2.2873,0,2.2974,2.2978,2.2962,2.2961,2.2955,2.2953,2.295,2.2933,2.2931,2.292,2.2922,2.2918,2.2913,2.2909,2.2895,2.289,2.2883,2.2897,2.2881,2.2885,2.2881,2.288,2.288,2.29,2.2901,2.2901,2.2901,0,2.301,2.3003,2.2999,2.2993,2.299,2.2985,2.2978,2.2978,2.2959,2.2957,2.2953,2.295,2.2943,2.2938,2.293,2.2923,2.2908,2.2907,2.2908,2.2912,2.2916,2.2912,2.2869,2.2905,2.2905,2.2905,2.2904,2.2904,2.3038,2.3041,2.303,2.3027,2.302,2.3014,2.3014,2.3004,2.3,2.2993,2.2983,2.2981,2.2971,2.2959,2.2953,2.295,2.2942,2.2945,2.2945,2.2946,2.2948,2.2918,2.2949,2.2949,2.2949,2.2949,2.2948,0,2.3072,2.3065,2.3062,2.3053,2.305,2.3038,2.303,2.3028,2.3026,2.3018,2.3014,2.301,2.3005,2.2992,2.2985,2.2986,2.2979,2.2985,2.2984,2.2982,2.2956,2.2954,2.299,2.299,2.299,2.299,2.299,2.299,2.309,2.3092,2.3084,2.3083,2.3075,2.3072,2.3069,2.3063,2.3056,2.3052,2.3048,2.304,2.3029,2.3022,2.3017,2.3013,2.3011,2.3019,2.3012,2.2988,2.2984,2.298,2.2978,2.3019,2.3019,2.3038,2.3038,2.3039]}]]